Location: Timmins
(48.4758°N, 81.3305°W)
Time: 11:13:04
(UTC-04:00)

ISS - Visible Passes

Search period start: 19 April 2024 00:00
Search period end: 29 April 2024 00:00
Orbit: 412 x 418 km, 51.6° (Epoch: 19 April)

Date Brightness Start Highest point End Pass type
(mag) Time Alt. Az. Time Alt. Az. Time Alt. Az.
20 Apr -1.1 05:46:11 10° SSE 05:47:58 14° SE 05:49:45 10° ESE visible
22 Apr -2.3 05:43:38 10° SSW 05:46:35 30° SE 05:49:32 10° E visible
23 Apr -1.7 04:55:44 12° S 04:57:47 20° SE 05:00:16 10° E visible
24 Apr -1.3 04:08:38 12° SE 04:09:00 13° SE 04:10:30 10° ESE visible
24 Apr -3.5 05:41:52 10° SW 05:45:10 62° SSE 05:48:28 10° ENE visible
25 Apr -3.0 04:54:17 20° SSW 04:56:10 41° SSE 04:59:20 10° ENE visible
26 Apr -2.4 04:06:59 27° SSE 04:07:11 27° SE 04:10:04 10° E visible
27 Apr -1.2 03:19:35 14° ESE 03:19:35 14° ESE 03:20:32 10° E visible
27 Apr -3.8 04:52:26 21° WSW 04:54:31 82° SSE 04:57:51 10° ENE visible
28 Apr -3.6 04:04:57 51° S 04:05:21 56° SSE 04:08:37 10° ENE visible
